Sacramento, CA

7:07 PM PST on November 23, 2017 (GMT -0800)
Sacramento Executive

Weather History for KSAC - December, 2012

Change the Weather History Date:

Wednesday, December 12, 2012

  Actual Average Record
Temperature  
Mean Temperature 52 °F -  
Max Temperature 57 °F 54 °F 69 °F (1958)
Min Temperature 47 °F 38 °F 25 °F (1972)
Degree Days  
Heating Degree Days 13    
Cooling Degree Days 0    
Moisture  
Dew Point 41 °F    
Average Humidity 76    
Maximum Humidity 93    
Minimum Humidity 49    
Precipitation  
Precipitation 0.04 in 0.10 in 1.37 in (1995)
Month to date precipitation 2.45 1.15  
Year to date precipitation 17.45 16.42  
Since 1 July precipitation 7.59  
Sea Level Pressure  
Sea Level Pressure 29.85 in    
Wind  
Wind Speed 5 mph (South)    
Max Wind Speed 14 mph    
Max Gust Speed 18 mph    
Visibility 9 miles    
Events Rain    
T = Trace of Precipitation, MM = Missing Value Source: NWS Daily Summary

Daily Weather History Graph

Daily Weather History Graph

Search for Another Location

Airport or City:

Trip Planner

Search our weather history database for the weather conditions in past years. The results will help you decide how hot, cold, wet, or windy it might be!

Date:

Astronomy

Dec. 12, 2012 Rise Set
Actual Time 7:14 AM PST 4:45 PM PST
Civil Twilight 6:44 AM PST 5:15 PM PST
Nautical Twilight 6:11 AM PST 5:48 PM PST
Astronomical Twilight 5:39 AM PST 6:20 PM PST
Moon 6:25 AM PST (12/12) 4:27 PM PST (12/12)
Length of Visible Light 10h 30m
Length of Day
9h 30m
Waning Crescent, 0% of the Moon is Illuminated
Dec 12
Waning Crescent
Dec 13
New
Dec 19
First Quarter
Dec 28
Full
Jan 4
Last Quarter

Hourly Weather History & Observations

Time (PST) Temp. Windchill Dew Point Humidity Pressure Visibility Wind Dir Wind Speed Gust Speed Precip Events Conditions
12:53 AM 51.1 °F - 45.0 °F 80% 29.84 in 10.0 mi South 3.5 mph - 0.00 in Rain Light Rain
1:07 AM 50.0 °F - 46.4 °F 87% 29.84 in 2.5 mi Calm Calm - 0.02 in Rain Light Rain
1:25 AM 48.2 °F - 46.4 °F 93% 29.84 in 4.0 mi SE 3.5 mph - 0.03 in Rain Light Rain
1:53 AM 48.9 °F - 46.9 °F 93% 29.83 in 9.0 mi SE 4.6 mph - 0.04 in   Overcast
2:53 AM 48.9 °F - 46.0 °F 90% 29.83 in 10.0 mi SSE 6.9 mph - N/A   Overcast
3:53 AM 48.9 °F - 46.0 °F 90% 29.82 in 10.0 mi SSE 4.6 mph - N/A   Overcast
4:53 AM 50.0 °F - 46.0 °F 86% 29.81 in 10.0 mi South 6.9 mph - 0.00 in   Overcast
5:53 AM 48.9 °F - 45.0 °F 86% 29.82 in 10.0 mi South 4.6 mph - N/A   Overcast
6:53 AM 48.0 °F - 44.1 °F 86% 29.83 in 10.0 mi SSW 3.5 mph - N/A   Overcast
7:53 AM 46.9 °F - 43.0 °F 86% 29.84 in 10.0 mi SSW 6.9 mph - N/A   Clear
8:53 AM 46.9 °F - 42.1 °F 83% 29.86 in 10.0 mi SW 9.2 mph - N/A   Clear
9:53 AM 48.9 °F - 42.1 °F 77% 29.86 in 10.0 mi SSW 8.1 mph - N/A   Overcast
10:53 AM 52.0 °F - 42.1 °F 69% 29.87 in 10.0 mi SW 11.5 mph 16.1 mph N/A   Clear
11:53 AM 54.0 °F - 39.0 °F 57% 29.86 in 10.0 mi SW 9.2 mph - N/A   Clear
12:53 PM 55.0 °F - 39.0 °F 55% 29.85 in 10.0 mi SW 5.8 mph - N/A   Clear
1:53 PM 55.9 °F - 37.0 °F 49% 29.83 in 10.0 mi SW 5.8 mph - N/A   Partly Cloudy
2:53 PM 55.0 °F - 37.9 °F 53% 29.83 in 10.0 mi SSW 6.9 mph - N/A   Scattered Clouds
3:53 PM 54.0 °F - 36.0 °F 51% 29.84 in 10.0 mi SSW 8.1 mph - N/A   Clear
4:53 PM 52.0 °F - 37.0 °F 57% 29.84 in 10.0 mi South 4.6 mph - N/A   Clear
5:53 PM 50.0 °F - 39.0 °F 66% 29.85 in 10.0 mi SSW 3.5 mph - N/A   Scattered Clouds
6:53 PM 46.9 °F - 39.0 °F 74% 29.86 in 10.0 mi ESE 4.6 mph - N/A   Scattered Clouds
7:53 PM 46.0 °F 44.8 °F 39.0 °F 76% 29.87 in 10.0 mi SSW 3.5 mph - N/A   Scattered Clouds
8:53 PM 45.0 °F - 39.0 °F 80% 29.88 in 10.0 mi Calm Calm - N/A   Clear
9:53 PM 42.1 °F 40.2 °F 37.9 °F 85% 29.89 in 10.0 mi East 3.5 mph - N/A   Overcast
10:53 PM 42.1 °F - 37.9 °F 85% 29.90 in 10.0 mi Calm Calm - N/A   Mostly Cloudy
11:53 PM 42.1 °F - 37.9 °F 85% 29.90 in 10.0 mi Calm Calm - N/A   Clear